User: anonymous   Login
Location: Unspecified
(0.0000°N, 0.0000°E)
Time: 13:38:27
(UTC+02:00)
Language:

Helios 1A Rocket - Orbit

View from above orbital plane
View from above orbital plane
View from above satellite
View from above satellite

Ground track
Ground track

The orbit data is extracted from the following two-line orbital elements,

1 23608U 95033D   18115.93693784 +.00000590 +00000-0 +57457-4 0  9990
2 23608 098.2561 069.4793 0015554 304.8224 055.1532 14.96638799234229
Epoch (UTC): 25 April 2018 22:29:11
Eccentricity: 0.0015554
inclination: 98.2561°
perigee height: 566 km
apogee height: 588 km
right ascension of ascending node: 69.4793°
argument of perigee: 304.8224°
revolutions per day: 14.96638799
mean anomaly at epoch: 55.1532°
orbit number at epoch: 23422

The dashed part of the orbit path shows where the satellite is in the earth's shadow,  

DLR